ASTRA 2G

Last updated on Thu Oct 30 2025 00:02:49 GMT+0000 (Coordinated Universal Time)

1 40364U 14089A 25302.47653773 .00000160 00000+0 00000+0 0 9998 2 40364 0.0558 29.5100 0001049 52.4641 155.8587 1.00272457 39650
UTC large
Height (km)
Speed (km/s)
/
Latitude / Longitude
Inclination (degrees)
Orbital Period (minutes)
Azimuth
Elevation
Range (km)
Doppler Factor

Next 0 passes for location: London (51.5072 / 0.1276)

Sorry there are no passes over London.